Tracking 19280 objects as of 15-Nov-2018
HD Live streaming from Space Station
objects crossing your sky now

SYNCOM 3

Track SYNCOM 3 now!
SYNCOM 3 is classified as:


NORAD ID: 858
Int'l Code: 1964-047A
Perigee: 35,778.1 km
Apogee: 35,818.2 km
Inclination: 0.6 °
Period: 1,436.3 minutes
Semi major axis: 42169 km
RCS: 6.3096 m2 (large)
Launch date: August 19, 1964
Source: United States (US)
Launch site: AIR FORCE EASTERN TEST RANGE (AFETR)
aabbcc
Your satellite tracking list
Your tracking list is empty




NASA's NSSDC Master Catalog

Two Line Element Set (TLE):
1   858U 64047A   18318.54752397 -.00000155 +00000-0 +00000-0 0  9997
2   858 000.6075 040.7233 0004750 210.7826 154.6887 01.00255989025681
Source of the keplerian elements: AFSPC